Location: Arcusa
(42.3167°N, 0.0833°W)
Time: 21:28:50
(UTC+00:00)

MOS 1-B - Pass Details

Date: 25 January 2020
Orbit: 905 x 913 km, 99.4° (Epoch: 18 February)

Event Time Altitude Azimuth Distance (km) Brightness Sun altitude
Rises 05:40:04 0° 11° (NNE) 3,546 7.5 -18.6°
Reaches altitude 10° 05:42:29 10° 9° (N) 2,601 6.7 -18.1°
Maximum altitude 05:48:14 67° 289° (WNW) 985 4.3 -17.1°
Drops below altitude 10° 05:53:57 10° 208° (SSW) 2,590 6.6 -16.1°
Sets 05:56:22 0° 205° (SSW) 3,528 7.3 -15.6°
